User: anonymous   Login
Location: Oroua River
(40.4333°S, 175.4333°E)
Time: 02:39:03
(UTC+00:00)
Language:

Cosmos 1833 Rocket - Orbit

View from above orbital plane
View from above orbital plane
View from above satellite
View from above satellite

Ground track
Ground track

The orbit data is extracted from the following two-line orbital elements,

1 17590U 87027B   23147.04894874  .00000069  00000-0  58240-4 0  9995
2 17590  71.0035 260.3952 0006981 244.3029 115.7374 14.16886439871458
Epoch (UTC): 27 May 2023 01:10:29
Eccentricity: 0.0006981
inclination: 71.0035°
perigee height: 831 km
apogee height: 841 km
right ascension of ascending node: 260.3952°
argument of perigee: 244.3029°
revolutions per day: 14.16886439
mean anomaly at epoch: 115.7374°
orbit number at epoch: 87145

The dashed part of the orbit path shows where the satellite is in the earth's shadow,  

DLR